Weather History for Camden, AR

Change the Weather History Date:

Friday, January 4, 2013

  Actual Average Record
Temperature  
Mean Temperature 40 °F -  
Max Temperature 53 °F 51 °F 75 °F (1949)
Min Temperature 26 °F 29 °F 14 °F (1978)
Degree Days  
Heating Degree Days 26    
Moisture  
Dew Point 28 °F    
Average Humidity 68    
Maximum Humidity 100    
Minimum Humidity 30    
Precipitation  
Precipitation 0.00 in - - ()
Sea Level Pressure  
Sea Level Pressure 30.46 in    
Wind  
Wind Speed 1 mph (NW)    
Max Wind Speed 9 mph    
Max Gust Speed -    
Visibility 9 miles    
Events      
Averages and records for this station are not official NWS values.
T = Trace of Precipitation, MM = Missing Value Source: NWS Daily Summary

Daily Weather History Graph

Daily Weather History Graph

Search for Another Location

Airport:

Trip Planner

Search our weather history database for the weather conditions in past years. The results will help you decide how hot, cold, wet, or windy it might be!

Date:

Astronomy

Jan. 04, 2013 Rise Set
Actual Time 7:16 AM CST 5:16 PM CST
Civil Twilight 6:48 AM CST 5:43 PM CST
Nautical Twilight 6:17 AM CST 6:14 PM CST
Astronomical Twilight 5:47 AM CST 6:45 PM CST
Moon No Moon Rise 11:21 AM CST (1/4)
Length of Visible Light 10h 55m
Length of Day
10h 00m
Waning Gibbous, 55% of the Moon is Illuminated
Jan 4
Waning Gibbous
Jan 4
Last Quarter
Jan 11
New
Jan 18
First Quarter
Jan 26
Full

Hourly Weather History & Observations

Time (CST) Temp. Windchill Dew Point Humidity Pressure Visibility Wind Dir Wind Speed Gust Speed Precip Events Conditions
12:15 AM 32.0 °F - 30.2 °F 93% 30.46 in 6.0 mi Calm Calm - N/A   Clear
12:35 AM 32.0 °F - 28.4 °F 87% 30.46 in 5.0 mi Calm Calm - N/A   Clear
12:55 AM 30.2 °F - 28.4 °F 93% 30.46 in 7.0 mi Calm Calm - N/A   Clear
1:15 AM 30.2 °F - 28.4 °F 93% 30.46 in 7.0 mi Calm Calm - N/A   Clear
1:35 AM 28.4 °F - 28.4 °F 100% 30.46 in 7.0 mi Calm Calm - N/A   Mostly Cloudy
1:55 AM 32.0 °F - 28.4 °F 87% 30.46 in 8.0 mi Calm Calm - N/A   Overcast
2:15 AM 32.0 °F - 30.2 °F 93% 30.46 in 7.0 mi Calm Calm - N/A   Overcast
2:55 AM 32.0 °F - 32.0 °F 100% 30.46 in 9.0 mi Calm Calm - N/A   Overcast
3:15 AM 32.0 °F - 32.0 °F 100% 30.45 in 10.0 mi Calm Calm - N/A   Overcast
5:55 AM 26.6 °F - 26.6 °F 100% 30.46 in 8.0 mi Calm Calm - N/A   Clear
6:15 AM 28.4 °F - 26.6 °F 93% 30.48 in 5.0 mi Calm Calm - N/A   Clear
6:35 AM 28.4 °F - 26.6 °F 93% 30.50 in 3.0 mi Calm Calm - N/A   Clear
6:55 AM 28.4 °F - 26.6 °F 93% 30.51 in 5.0 mi Calm Calm - N/A   Clear
7:15 AM 28.4 °F - 26.6 °F 93% 30.52 in 7.0 mi Calm Calm - N/A   Clear
7:35 AM 26.6 °F - 24.8 °F 93% 30.51 in 8.0 mi Calm Calm - N/A   Clear
7:55 AM 28.4 °F - 26.6 °F 93% 30.50 in 7.0 mi Calm Calm - N/A   Clear
8:15 AM 32.0 °F - 30.2 °F 93% 30.51 in 7.0 mi Calm Calm - N/A   Clear
8:35 AM 33.8 °F - 32.0 °F 93% 30.50 in 8.0 mi Calm Calm - N/A   Clear
8:55 AM 37.4 °F - 32.0 °F 81% 30.52 in 9.0 mi Calm Calm - N/A   Partly Cloudy
9:15 AM 37.4 °F - 32.0 °F 81% 30.52 in 9.0 mi Calm Calm - N/A   Clear
9:35 AM 37.4 °F - 32.0 °F 81% 30.54 in 8.0 mi Calm Calm - N/A   Clear
9:55 AM 39.2 °F - 32.0 °F 75% 30.54 in 8.0 mi Calm Calm - N/A   Partly Cloudy
10:15 AM 42.8 °F 40.1 °F 32.0 °F 66% 30.54 in 9.0 mi WNW 4.6 mph - N/A   Scattered Clouds
10:35 AM 42.8 °F 40.1 °F 32.0 °F 66% 30.53 in 9.0 mi NW 4.6 mph - N/A   Partly Cloudy
10:55 AM 44.6 °F 43.1 °F 32.0 °F 61% 30.52 in 10.0 mi NW 3.5 mph - N/A   Clear
11:15 AM 46.4 °F 44.3 °F 32.0 °F 57% 30.53 in 10.0 mi WNW 4.6 mph - N/A   Clear
11:35 AM 46.4 °F 43.5 °F 28.4 °F 50% 30.51 in 10.0 mi NW 5.8 mph - N/A   Scattered Clouds
11:55 AM 48.2 °F - 28.4 °F 46% 30.50 in 10.0 mi NNW 4.6 mph - N/A   Scattered Clouds
12:15 PM 50.0 °F - 26.6 °F 40% 30.49 in 10.0 mi NNW 6.9 mph - N/A   Mostly Cloudy
12:55 PM 53.6 °F - 26.6 °F 35% 30.47 in 10.0 mi Calm Calm - N/A   Partly Cloudy
1:15 PM 51.8 °F - 24.8 °F 35% 30.45 in 10.0 mi NW 5.8 mph - N/A   Partly Cloudy
1:35 PM 51.8 °F - 24.8 °F 35% 30.45 in 10.0 mi WNW 3.5 mph - N/A   Clear
1:55 PM 53.6 °F - 24.8 °F 33% 30.44 in 10.0 mi North 5.8 mph - N/A   Clear
2:15 PM 53.6 °F - 24.8 °F 33% 30.43 in 10.0 mi SW 3.5 mph - N/A   Clear
2:35 PM 53.6 °F - 23.0 °F 30% 30.42 in 10.0 mi NNW 5.8 mph - N/A   Clear
2:55 PM 51.8 °F - 23.0 °F 33% 30.42 in 10.0 mi NW 9.2 mph - N/A   Clear
3:15 PM 50.0 °F - 23.0 °F 35% 30.42 in 10.0 mi NW 4.6 mph - N/A   Mostly Cloudy
3:35 PM 50.0 °F - 23.0 °F 35% 30.42 in 10.0 mi NNW 4.6 mph - N/A   Overcast
3:55 PM 50.0 °F - 23.0 °F 35% 30.42 in 10.0 mi North 6.9 mph - N/A   Mostly Cloudy
4:15 PM 48.2 °F - 23.0 °F 37% 30.42 in 10.0 mi North 6.9 mph - N/A   Overcast
4:35 PM 48.2 °F - 23.0 °F 37% 30.42 in 10.0 mi North 8.1 mph - N/A   Overcast
4:55 PM 48.2 °F - 23.0 °F 37% 30.42 in 10.0 mi North 4.6 mph - N/A   Overcast
5:15 PM 46.4 °F 45.2 °F 23.0 °F 40% 30.42 in 10.0 mi NNW 3.5 mph - N/A   Overcast
5:35 PM 46.4 °F 45.2 °F 24.8 °F 43% 30.42 in 10.0 mi North 3.5 mph - N/A   Overcast
5:55 PM 46.4 °F - 24.8 °F 43% 30.42 in 10.0 mi Calm Calm - N/A   Overcast
6:15 PM 46.4 °F - 24.8 °F 43% 30.43 in 10.0 mi Calm Calm - N/A   Overcast
6:55 PM 44.6 °F - 28.4 °F 53% 30.43 in 10.0 mi Calm Calm - N/A   Overcast
7:15 PM 44.6 °F - 32.0 °F 61% 30.43 in 10.0 mi Calm Calm - N/A   Overcast
7:35 PM 42.8 °F - 32.0 °F 66% 30.43 in 10.0 mi Calm Calm - N/A   Overcast
7:55 PM 41.0 °F - 32.0 °F 70% 30.41 in 10.0 mi Calm Calm - N/A   Mostly Cloudy
8:15 PM 39.2 °F - 32.0 °F 75% 30.42 in 10.0 mi Calm Calm - N/A   Overcast
8:35 PM 39.2 °F - 32.0 °F 75% 30.42 in 10.0 mi Calm Calm - N/A   Mostly Cloudy
9:15 PM 37.4 °F - 32.0 °F 81% 30.42 in 10.0 mi Calm Calm - N/A   Clear
9:35 PM 37.4 °F - 32.0 °F 81% 30.43 in 10.0 mi Calm Calm - N/A   Clear
9:55 PM 37.4 °F - 32.0 °F 81% 30.42 in 10.0 mi Calm Calm - N/A   Clear
10:15 PM 37.4 °F - 32.0 °F 81% 30.42 in 10.0 mi Calm Calm - N/A   Partly Cloudy
10:35 PM 37.4 °F - 32.0 °F 81% 30.42 in 10.0 mi Calm Calm - N/A   Scattered Clouds
10:55 PM 37.4 °F - 32.0 °F 81% 30.42 in 10.0 mi Calm Calm - N/A   Scattered Clouds
11:15 PM 37.4 °F - 32.0 °F 81% 30.42 in 10.0 mi Calm Calm - N/A   Partly Cloudy
11:35 PM 37.4 °F - 32.0 °F 81% 30.40 in 10.0 mi Calm Calm - N/A   Mostly Cloudy
11:55 PM 37.4 °F - 32.0 °F 81% 30.40 in 10.0 mi Calm Calm - N/A   Mostly Cloudy